Content
SEND FEEDBACK

Daily
Averages
Monthly
Summary
Switzerland

MUNCHENBUCHSEE, SWITZERLAND


Home > Europe > Switzerland
Elevation: 1949 feet     Latitude: 47 00N     Longitude: 007 24E

WEATHER
 
SELECT A DAY
Number of Records: 187,534;   Date Range: 7/1/96 - 12/23/14
 
SHARE

PRINT THIS DATA

[ ← Previous Day ]
WEATHER ALMANAC - JANUARY 31, 2013
[ Next Day → ]
[ °C ]   °F
Weather ElementAverageHighLow
Temperature42.4 °F53.6 °F (1:50 pm)30.2 °F (5:50 am)
Dewpoint32.2 °F39.2 °F (11:20 am)23 °F (3:50 pm)
Humidity72.4 %100 % (3:50 am)33 % (3:50 pm)
Barometer30.23 in30.33 in (2:50 am)30.15 in (4:20 pm)
Wind Speed5.5 mph13.8 mph (10:50 pm)
Wind Gust25.3 mph (5:20 pm)
Weather ElementAverage
Visibility6.2 mi
Wind DirectionESE (124 °)

Weather ElementTotal
Precipitation---
Heating Degree Days23.1 (Base 65)
Averaged from 48 records on January 31, 2013
WEATHER CONDITIONS BREAKOUT
WIND DIRECTION BREAKOUT
WEATHER BY HOUR - JANUARY 31, 2013
[ °C ]   °F
Local TimeTemperatureDewpointHumidityBarometerVisibilityWind DirectionWind SpeedGust SpeedPrecipitationEventsConditions
12:50 AM42.8 °F35.6 °F76 %30.30 inVariable2.3 mphClear
1:20 AM39.2 °F35.6 °F87 %30.30 inWest (260°)4.6 mphClear
1:50 AM35.6 °F33.8 °F93 %30.30 inWNW (290°)8.1 mphClear
2:20 AM37.4 °F35.6 °F93 %30.30 inVariable4.6 mphClear
2:50 AM35.6 °F33.8 °F93 %30.33 inVariable3.5 mphClear
3:20 AM33.8 °F32.0 °F93 %30.33 in6.2 miVariable2.3 mphPartly Cloudy
3:50 AM32.0 °F32.0 °F100 %30.30 inVariable2.3 mphClear
4:20 AM33.8 °F32.0 °F93 %30.27 inVariable1.2 mphClear
4:50 AM33.8 °F33.8 °F100 %30.27 inVariable3.5 mphClear
5:20 AM32.0 °F32.0 °F100 %30.27 inVariable1.2 mphClear
5:34 AM32.0 °F30.2 °F93 %30.27 inVariable1.2 mphClear
5:50 AM30.2 °F30.2 °F100 %30.27 in6.2 miVariable1.2 mphFogShallow Fog
6:10 AM30.2 °F30.2 °F100 %30.27 inVariable1.2 mphClear
6:50 AM30.2 °F30.2 °F100 %30.27 inVariable2.3 mphClear
7:20 AM32.0 °F32.0 °F100 %30.24 inESE (110°)3.5 mphClear
7:50 AM32.0 °F32.0 °F100 %30.24 inVariable2.3 mphClear
8:20 AM32.0 °F32.0 °F100 %30.27 inVariable1.2 mphClear
8:50 AM32.0 °F32.0 °F100 %30.27 inVariable2.3 mphClear
9:20 AM33.8 °F33.8 °F100 %30.27 inVariable1.2 mphClear
9:50 AM33.8 °F33.8 °F100 %30.27 in6.2 miVariable2.3 mphPartly Cloudy
10:20 AM35.6 °F35.6 °F100 %30.27 in6.2 miVariable1.2 mphPartly Cloudy
10:50 AM37.4 °F35.6 °F93 %30.27 in6.2 miSSE (160°)3.5 mphPartly Cloudy
11:20 AM41.0 °F39.2 °F93 %30.24 in6.2 miVariable3.5 mphPartly Cloudy
11:50 AM41.0 °F37.4 °F87 %30.24 inESE (110°)5.8 mphClear
12:20 PM44.6 °F39.2 °F81 %30.24 inSE (130°)6.9 mphClear
12:50 PM48.2 °F39.2 °F71 %30.21 inESE (120°)4.6 mphClear
1:20 PM51.8 °F32.0 °F47 %30.21 inWest (260°)4.6 mphClear
1:50 PM53.6 °F30.2 °F41 %30.21 inVariable5.8 mphClear
2:20 PM51.8 °F28.4 °F41 %30.21 inWest (280°)11.5 mphClear
2:50 PM51.8 °F26.6 °F38 %30.21 inVariable4.6 mphClear
3:20 PM51.8 °F24.8 °F35 %30.18 inVariable6.9 mphClear
3:50 PM51.8 °F23.0 °F33 %30.18 inWest (280°)8.1 mphClear
4:20 PM51.8 °F23.0 °F33 %30.15 inNorth (360°)5.8 mphClear
4:50 PM50.0 °F23.0 °F35 %30.18 inWNW (290°)9.2 mphClear
5:20 PM50.0 °F24.8 °F37 %30.18 inWest (280°)12.7 mph25.3 mphClear
5:50 PM50.0 °F28.4 °F43 %30.18 in6.2 miSSW (210°)11.5 mphOvercast
6:20 PM50.0 °F30.2 °F47 %30.18 in6.2 miSSW (200°)9.2 mph24.2 mphOvercast
6:50 PM50.0 °F28.4 °F43 %30.18 in6.2 miSW (220°)6.9 mphOvercast
7:20 PM50.0 °F30.2 °F47 %30.18 in6.2 miSW (230°)6.9 mphMostly Cloudy
7:50 PM50.0 °F33.8 °F54 %30.18 in6.2 miVariable8.1 mph21.9 mphMostly Cloudy
8:20 PM50.0 °F33.8 °F54 %30.18 in6.2 miWest (260°)8.1 mphMostly Cloudy
8:50 PM50.0 °F33.8 °F54 %30.15 in6.2 miWest (270°)4.6 mphMostly Cloudy
9:20 PM50.0 °F33.8 °F54 %30.15 in6.2 miWSW (250°)8.1 mphMostly Cloudy
9:50 PM50.0 °F33.8 °F54 %30.15 in6.2 miWest (280°)8.1 mphMostly Cloudy
10:20 PM50.0 °F35.6 °F58 %30.15 in6.2 miWest (270°)10.4 mphMostly Cloudy
10:50 PM50.0 °F35.6 °F58 %30.15 in6.2 miWest (270°)13.8 mphScattered Clouds
11:20 PM50.0 °F35.6 °F58 %30.15 in6.2 miWest (270°)10.4 mphMostly Cloudy
11:50 PM48.2 °F37.4 °F66 %30.15 in6.2 miWNW (290°)11.5 mphRainLight Rain
Hourly data recorded from LSZB, located miles away from Munchenbuchsee, Switzerland







STORIES FROM OUR PARTNERS